VLG1TX LECO-LEBL

Flight info

Callsign VLG1TX
Flight time N/A
Altitude 32000
Route ROXER DCT LASKU/N0419F310 DCT RONSI DCT OBETO/N0423F320 M190 BLV M601 RONNY/N0420F310 DCT SURCO/N0424F320 M601 GRAUS
Aircraft A320/M-SDFGHILORVWXY/LB1

Departure

Time N/A
Airport A Coruña Airport (LECO)

Arrival

Time 2026-05-04 16:28
Airport Josep Tarradellas Barcelona-El Prat Airport (LEBL)
Time Latitude Longitude Altitude Speed Heading
2026-05-04 16:08 41.78125 1.13822 19784 ft 368 kts 116°
2026-05-04 16:09 41.76411 1.20231 18996 ft 362 kts 116°
2026-05-04 16:09 41.74695 1.26511 18222 ft 357 kts 116°
2026-05-04 16:10 41.73064 1.32761 17456 ft 354 kts 114°
2026-05-04 16:11 41.70596 1.41936 16379 ft 344 kts 116°
2026-05-04 16:11 41.69731 1.44908 16018 ft 342 kts 116°
2026-05-04 16:12 41.67167 1.53719 14947 ft 335 kts 116°
2026-05-04 16:12 41.64676 1.62359 13910 ft 329 kts 116°
2026-05-04 16:13 41.63043 1.68011 13240 ft 323 kts 116°
2026-05-04 16:13 41.61433 1.73581 12551 ft 319 kts 116°
2026-05-04 16:14 41.60096 1.78212 11968 ft 315 kts 116°
2026-05-04 16:14 41.59070 1.81756 11554 ft 312 kts 116°
2026-05-04 16:15 41.56722 1.89811 10360 ft 309 kts 115°
2026-05-04 16:16 41.55175 1.95116 9764 ft 301 kts 115°
2026-05-04 16:16 41.52928 2.02808 8675 ft 295 kts 114°
2026-05-04 16:17 41.51447 2.07881 7976 ft 290 kts 114°
2026-05-04 16:18 41.49234 2.15418 7852 ft 290 kts 114°
2026-05-04 16:18 41.48497 2.17909 7452 ft 288 kts 114°
2026-05-04 16:19 41.46321 2.25279 6304 ft 281 kts 113°
2026-05-04 16:19 41.45551 2.30347 5524 ft 280 kts 89°
2026-05-04 16:20 41.47280 2.37652 4330 ft 275 kts 66°
2026-05-04 16:20 41.47851 2.42369 3993 ft 248 kts 105°
2026-05-04 16:21 41.44748 2.46825 3377 ft 218 kts 166°
2026-05-04 16:22 41.41896 2.46291 3010 ft 214 kts 217°
2026-05-04 16:22 41.40025 2.40898 3012 ft 220 kts 252°
2026-05-04 16:23 41.38766 2.35327 3008 ft 199 kts 254°
2026-05-04 16:24 41.36770 2.28571 2890 ft 196 kts 244°
2026-05-04 16:25 41.35670 2.25331 2429 ft 187 kts 245°
2026-05-04 16:26 41.33670 2.19455 1506 ft 170 kts 245°
2026-05-04 16:26 41.32308 2.15460 869 ft 144 kts 245°
2026-05-04 16:27 41.31481 2.13039 496 ft 146 kts 245°
2026-05-04 16:28 41.30232 2.09387 19 ft 127 kts 246°
2026-05-04 16:28 41.29699 2.08193 17 ft 0 kts 200°
2026-05-04 16:29 41.29541 2.08272 17 ft 17 kts 154°
2026-05-04 16:30 41.29379 2.08357 19 ft 3 kts 213°
2026-05-04 16:31 41.29348 2.08261 19 ft 14 kts 246°
2026-05-04 16:31 41.29216 2.08110 19 ft 4 kts 155°
2026-05-04 16:32 41.29208 2.08115 19 ft 0 kts 155°